Location: Julian California
(33.0790°N, 116.6010°W)
Time: 12:26:47
(UTC-07:00)

Terra - Visible Passes

Search period start: 20 June 2018 00:00
Search period end: 30 June 2018 00:00
Orbit: 701 x 703 km, 98.2° (Epoch: 20 June)

Date Brightness Start Highest point End Pass type
(mag) Time Alt. Az. Time Alt. Az. Time Alt. Az.
20 Jun 1.9 22:49:22 69° NNE 22:49:22 69° NNE 22:53:39 10° N visible
21 Jun 3.4 21:53:44 19° ENE 21:54:15 19° ENE 21:57:36 10° NNE visible
21 Jun 3.2 23:32:37 32° WNW 23:32:37 32° WNW 23:36:02 10° NNW visible
22 Jun 2.1 22:37:00 54° ENE 22:37:00 54° ENE 22:41:22 10° N visible
23 Jun 4.5 00:15:53 11° WNW 00:15:53 11° WNW 00:16:20 10° WNW visible
23 Jun 3.7 21:41:23 14° ENE 21:42:11 14° ENE 21:44:42 10° NE visible
23 Jun 2.7 23:20:16 43° WNW 23:20:16 43° WNW 23:24:03 10° NNW visible
24 Jun 2.5 22:24:39 40° ENE 22:24:39 40° ENE 22:29:00 10° N visible
25 Jun 4.2 00:03:32 15° WNW 00:03:32 15° WNW 00:05:21 10° NW visible
25 Jun 4.0 21:29:14 10° ENE 21:30:07 10° ENE 21:31:00 10° NE visible
25 Jun 2.3 23:07:54 58° NW 23:07:54 58° NW 23:11:58 10° NNW visible
26 Jun 2.9 22:12:17 30° ENE 22:12:26 30° ENE 22:16:32 10° N visible
26 Jun 3.8 23:51:11 20° WNW 23:51:11 20° WNW 23:53:48 10° NW visible
27 Jun 1.9 22:55:34 71° N 22:55:34 71° N 22:59:47 10° NNW visible
28 Jun 3.3 21:59:57 22° ENE 22:00:19 22° ENE 22:03:57 10° NNE visible
28 Jun 3.4 23:38:50 27° WNW 23:38:50 27° WNW 23:42:00 10° NW visible
29 Jun 2.0 22:43:13 62° NE 22:43:13 62° NE 22:47:32 10° N visible
